N8DH Weather Reports


Display with metric or nautical units.
time (UTC)temp
F
wind
direction
speed
MPH
gust
MPH
rain 1hr
in
rain 24hr
in
rain mn
in
humidity
%
barometer
mb
20260509064518 53 201 2.0 7.0 0.00 0.18 0.00 92 1001.3
20260509063050 53 173 2.0 8.0 0.00 0.18 0.00 92 1001.5
20260509061639 53 217 3.0 7.0 0.00 0.18 0.00 92 1001.6
20260509060142 52 167 3.0 8.0 0.00 0.18 0.00 92 1001.6
20260509054520 53 161 3.0 10.0 0.00 0.18 0.00 92 1001.8
20260509053056 53 173 3.0 7.0 0.00 0.18 0.00 92 1001.9
20260509051638 52 188 3.0 6.0 0.00 0.18 0.00 92 1002.0
20260509050150 52 188 2.0 7.0 0.00 0.18 0.00 92 1002.1
20260509044514 52 139 2.0 6.0 0.00 0.18 0.00 92 1002.2
20260509043058 52 155 1.0 4.0 0.01 0.18 0.00 92 1002.2
20260509041523 52 160 1.0 4.0 0.01 0.18 0.00 92 1002.5
20260509040050 52 152 1.0 4.0 0.01 0.18 0.00 92 1002.5
20260509034636 52 159 1.0 3.0 0.01 0.18 0.18 91 1002.8
20260509033027 52 159 1.0 5.0 0.00 0.17 0.17 91 1003.0
20260509031612 52 192 4.0 7.0 0.00 0.17 0.17 91 1003.2
20260509030017 52 162 2.0 4.0 0.00 0.17 0.17 91 1003.0
20260509024609 52 144 3.0 9.0 0.00 0.17 0.17 90 1003.3
20260509023014 52 188 5.0 9.0 0.00 0.17 0.17 89 1003.5
20260509021547 52 182 2.0 7.0 0.00 0.17 0.17 90 1003.1
20260509020058 51 176 1.0 4.0 0.00 0.17 0.17 91 1003.2
20260509014638 52 171 1.0 4.0 0.01 0.17 0.17 91 1003.1
20260509013144 52 165 1.0 7.0 0.01 0.17 0.17 91 1003.1
20260509011528 52 181 2.0 6.0 0.02 0.17 0.17 91 1003.2
20260509010106 52 147 4.0 7.0 0.02 0.17 0.17 91 1003.0
20260509004634 52 190 4.0 8.0 0.02 0.16 0.16 91 1003.1
20260509003145 52 178 5.0 9.0 0.03 0.16 0.16 91 1003.1
20260509001520 51 183 3.0 6.0 0.02 0.15 0.15 91 1003.1
20260509000049 51 154 3.0 7.0 0.03 0.15 0.15 91 1003.2
20260508234606 51 174 4.0 6.0 0.04 0.14 0.14 91 1003.2
20260508233025 51 166 4.0 8.0 0.04 0.13 0.13 91 1003.3
20260508231604 51 205 2.0 6.0 0.05 0.13 0.13 91 1003.2
20260508230136 51 145 1.0 4.0 0.05 0.12 0.12 91 1003.1
20260508224549 51 171 0.0 2.0 0.03 0.10 0.10 90 1003.2
20260508223112 51 151 2.0 6.0 0.04 0.09 0.09 89 1003.2
20260508221544 52 211 2.0 4.0 0.05 0.08 0.08 89 1003.6
20260508220125 52 165 1.0 3.0 0.04 0.07 0.07 89 1003.3
20260508214639 51 256 0.0 3.0 0.05 0.07 0.07 88 1003.3
20260508213022 52 184 1.0 6.0 0.03 0.05 0.05 88 1003.2
20260508211554 52 180 2.0 4.0 0.02 0.03 0.03 87 1003.0
20260508210022 52 161 1.0 6.0 0.02 0.03 0.03 88 1003.2
20260508204607 52 188 3.0 9.0 0.01 0.02 0.02 86 1003.5
20260508203141 52 189 3.0 6.0 0.01 0.02 0.02 86 1003.7
20260508201526 52 194 5.0 12.0 0.00 0.01 0.01 83 1004.1
20260508194532 53 206 7.0 20.0 0.00 0.01 0.01 81 1004.6
20260508193108 55 181 11.0 18.0 0.00 0.01 0.01 76 1004.6
20260508191644 57 190 9.0 14.0 0.00 0.01 0.01 73 1004.6
20260508190016 56 205 7.0 10.0 0.00 0.01 0.01 73 1004.5
20260508184610 56 196 5.0 14.0 0.00 0.01 0.01 72 1004.6
20260508183011 57 188 11.0 18.0 0.00 0.01 0.01 70 1004.6
20260508181606 57 227 8.0 16.0 0.00 0.01 0.01 71 1004.8
20260508180024 56 188 12.0 17.0 0.01 0.01 0.01 72 1004.9
20260508174612 55 188 9.0 14.0 0.01 0.01 0.01 75 1005.2
20260508173138 55 213 5.0 11.0 0.01 0.01 0.01 77 1005.6
20260508171509 54 225 7.0 13.0 0.01 0.01 0.01 76 1005.6
20260508170049 54 232 5.0 14.0 0.00 0.00 0.00 76 1006.0
20260508164611 56 221 5.0 13.0 0.00 0.00 0.00 71 1005.9
20260508163017 56 219 2.0 7.0 0.00 0.00 0.00 70 1005.8
20260508161602 56 250 2.0 8.0 0.00 0.00 0.00 70 1006.0
20260508160139 56 214 2.0 12.0 0.00 0.00 0.00 68 1006.0
20260508154518 56 244 4.0 9.0 0.00 0.00 0.00 67 1006.0
20260508153101 57 269 4.0 15.0 0.00 0.00 0.00 70 1006.0
20260508151640 57 218 4.0 9.0 0.00 0.00 0.00 66 1005.9
20260508150033 56 232 3.0 12.0 0.00 0.00 0.00 67 1005.8
20260508144605 56 181 3.0 8.0 0.00 0.00 0.00 70 1005.8
20260508143137 55 191 3.0 7.0 0.00 0.00 0.00 70 1005.9
20260508141553 55 213 3.0 9.0 0.00 0.00 0.00 70 1006.0
20260508140114 54 239 5.0 8.0 0.00 0.00 0.00 69 1006.1
20260508134530 54 238 3.0 9.0 0.00 0.00 0.00 70 1006.1
20260508133105 53 263 3.0 11.0 0.00 0.00 0.00 70 1006.0
20260508131509 53 273 3.0 13.0 0.00 0.00 0.00 70 1006.2
20260508130043 53 299 5.0 9.0 0.00 0.00 0.00 70 1006.3
20260508124635 52 202 3.0 11.0 0.00 0.00 0.00 70 1006.2
20260508123115 51 230 3.0 9.0 0.00 0.00 0.00 72 1006.2
20260508121524 49 212 3.0 8.0 0.00 0.00 0.00 73 1006.2
20260508120057 50 218 3.0 8.0 0.00 0.00 0.00 74 1006.1
20260508114513 49 188 3.0 9.0 0.00 0.00 0.00 74 1005.9
20260508113100 48 212 2.0 7.0 0.00 0.00 0.00 77 1005.5
20260508111527 47 222 3.0 6.0 0.00 0.00 0.00 80 1005.6
20260508110104 47 211 3.0 7.0 0.00 0.00 0.00 80 1005.5
20260508104535 47 216 1.0 5.0 0.00 0.00 0.00 79 1005.5
20260508103102 48 211 3.0 9.0 0.00 0.00 0.00 77 1005.2
20260508101531 48 234 4.0 10.0 0.00 0.00 0.00 75 1005.3
20260508100114 49 192 8.0 13.0 0.00 0.00 0.00 73 1005.6
20260508094539 47 197 4.0 9.0 0.00 0.00 0.00 78 1005.7
20260508093057 47 180 0.0 6.0 0.00 0.00 0.00 80 1005.5
20260508091518 47 246 2.0 5.0 0.00 0.00 0.00 80 1005.6
20260508090043 46 242 0.0 5.0 0.00 0.00 0.00 79 1005.6
20260508084642 46 225 0.0 6.0 0.00 0.00 0.00 80 1005.7
20260508083019 46 180 3.0 9.0 0.00 0.00 0.00 80 1005.7
20260508081619 46 208 1.0 7.0 0.00 0.00 0.00 80 1005.9
20260508080023 46 221 5.0 9.0 0.00 0.00 0.00 80 1005.8
20260508074600 46 213 4.0 7.0 0.00 0.00 0.00 79 1005.8
20260508073143 46 205 5.0 9.0 0.00 0.00 0.00 79 1005.9
20260508071541 47 186 5.0 8.0 0.00 0.00 0.00 78 1006.0